Regional Weather Roundup
Issued by NWS Raleigh/Durham, NC

Home | Current Version | Previous Version | Text Only | Print | Product List | Glossary On
Versions: 1 2 3 4 5 6 7 8 9 10 11 12 13 14 15 16 17 18 19 20 21 22 23 24 25 26 27 28 29 30 31 32 33 34 35 36 37 38 39 40 41 42 43 44 45 46 47 48 49 50
000
ASUS42 KRAH 282010
RWRRAH
NORTH CAROLINA WEATHER ROUNDUP
NATIONAL WEATHER SERVICE RALEIGH NC
300 PM EST SUN DEC 28 2014

NOTE: "FAIR" INDICATES FEW OR NO CLOUDS BELOW 12,000 FEET WITH NO
SIGNIFICANT WEATHER AND/OR OBSTRUCTIONS TO VISIBILITY.

NCZ001-053-055-056-065-067-282100-
WESTERN NORTH CAROLINA

CITY           SKY/WX    TMP DP  RH WIND       PRES   REMARKS
ASHEVILLE      CLOUDY    58  47  66 N13       30.03R
JEFFERSON      CLOUDY    52  44  74 W18G26    30.01F
MORGANTON      CLOUDY    60  53  77 CALM      30.04S
HICKORY        CLOUDY    58  51  78 N6        29.99R
RUTHERFORDTON  PTSUNNY   64  55  75 CALM      29.99S
MOUNT AIRY     CLOUDY    55  46  69 CALM      30.02R
BOONE          PTSUNNY   50  47  92 W13G22    30.03F
$$

NCZ021-022-025-041-071-084-088-282100-
CENTRAL NORTH CAROLINA

CITY           SKY/WX    TMP DP  RH WIND       PRES   REMARKS
CHARLOTTE      CLOUDY    59  54  83 SW6       30.00S
GREENSBORO     CLOUDY    60  53  77 W10       29.99S
WINSTON-SALEM  CLOUDY    57  50  77 NW6       30.02R
RALEIGH-DURHAM CLOUDY    61  54  77 SW10      30.01S
FORT BRAGG     CLOUDY    64  57  77 SW8       30.00S
FAYETTEVILLE   CLOUDY    66  58  75 W9        30.00S
BURLINGTON     CLOUDY    61  52  72 W3        29.99S
LAURINBURG     LGT RAIN  63  59  87 W7        30.02S
$$

NCZ011-015-027-028-043-044-047-080-103-282100-
NORTHEASTERN NORTH CAROLINA

CITY           SKY/WX    TMP DP  RH WIND       PRES   REMARKS
ROCKY MT-WILSO CLOUDY    62  56  80 S7        30.00F
GREENVILLE     PTSUNNY   64  57  77 W6        30.03S
WASHINGTON     PTSUNNY   65  56  74 W9        30.02S
ELIZABETH CITY PTSUNNY   69  56  62 W15       29.99S
MANTEO         CLOUDY    61  54  77 SW3       30.01S
CAPE HATTERAS  CLOUDY    61  57  87 CALM      30.03R
$$

NCZ078-087-090-091-093-098-101-282100-
SOUTHEASTERN NORTH CAROLINA

CITY           SKY/WX    TMP DP  RH WIND       PRES   REMARKS
LUMBERTON      CLOUDY    66  59  78 W7        30.01R
GOLDSBORO      CLOUDY    64  63  97 W2        29.99F
KENANSVILLE    MOSUNNY   69  57  65 W7        30.01S
NEW BERN       CLOUDY    74  58  57 SW9       30.01F
CHERRY POINT   MOSUNNY   72  58  61 SW5       30.02S
BEAUFORT       MOSUNNY   65  58  78 SW13      30.02F
JACKSONVILLE   MOSUNNY   74  57  55 SW10      30.00F
WILMINGTON     MOSUNNY   74  59  59 SW14G22   30.01S
$$



USA.gov is the U.S. government's official web portal to all federal, state and local government web resources and services.